This is the latest recevied weather packets stored in our database for station/object WA1NHP. If no packets are shown the sender has not sent any weather packets the latest 1 day(s).
| Time | Temp. | Humidity | Pressure | Rain* | Wind** | Luminosity | Snow |
|---|---|---|---|---|---|---|---|
| 1778005444 | 27.22° C | 41% | 1023.9 hPa | 0 mm | 0 m/s | 898 W/m² | - |
| 1778004844 | 26.67° C | 39% | 1023.9 hPa | 0 mm | 0 m/s | 867 W/m² | - |
| 1778004243 | 26.67° C | 41% | 1023.9 hPa | 0 mm | 0.89 m/s, 183° | 895 W/m² | - |
| 1778003644 | 26.67° C | 40% | 1023.9 hPa | 0 mm | 2.24 m/s, 200° | 919 W/m² | - |
| 1778003044 | 26.67° C | 40% | 1023.9 hPa | 0 mm | 4.47 m/s, 202° | 874 W/m² | - |
| 1778002444 | 26.67° C | 43% | 1023.9 hPa | 0 mm | 3.58 m/s, 211° | 914 W/m² | - |
| 1778001844 | 26.11° C | 42% | 1023.9 hPa | 0 mm | 3.13 m/s, 219° | 947 W/m² | - |
| 1778001244 | 26.11° C | 43% | 1023.9 hPa | 0 mm | 2.68 m/s, 184° | 912 W/m² | - |
| 1778000644 | 26.11° C | 42% | 1023.9 hPa | 0 mm | 4.02 m/s, 209° | 935 W/m² | - |
| 1778000043 | 26.11° C | 45% | 1023.9 hPa | 0 mm | 2.68 m/s, 220° | 916 W/m² | - |
| 1777999444 | 26.11° C | 40% | 1023.9 hPa | 0 mm | 0.89 m/s, 191° | 1007 W/m² | - |
| 1777998843 | 25.56° C | 45% | 1023.9 hPa | 0 mm | 3.13 m/s, 200° | 940 W/m² | - |
| 1777998243 | 26.11° C | 42% | 1023.9 hPa | 0 mm | 3.13 m/s, 195° | 891 W/m² | - |
| 1777997644 | 25.56° C | 45% | 1023.9 hPa | 0 mm | 2.68 m/s, 218° | 942 W/m² | - |
| 1777997044 | 25.56° C | 44% | 1023.9 hPa | 0 mm | 3.13 m/s, 207° | 909 W/m² | - |
| 1777996444 | 24.44° C | 44% | 1023.9 hPa | 0 mm | 3.58 m/s, 205° | 889 W/m² | - |
| 1777995843 | 24.44° C | 46% | 1023.9 hPa | 0 mm | 2.68 m/s, 244° | 896 W/m² | - |
| 1777995244 | 23.89° C | 46% | 1023.9 hPa | 0 mm | 4.47 m/s, 187° | 900 W/m² | - |
| 1777994644 | 23.89° C | 47% | 1023.9 hPa | 0 mm | 3.58 m/s, 201° | 851 W/m² | - |
| 1777994044 | 23.89° C | 49% | 1023.9 hPa | 0 mm | 3.58 m/s, 222° | 879 W/m² | - |
| 1777993443 | 23.33° C | 53% | 1023.9 hPa | 0 mm | 3.13 m/s, 217° | 891 W/m² | - |
| 1777992844 | 22.22° C | 53% | 1023.9 hPa | 0 mm | 2.68 m/s, 171° | 812 W/m² | - |
| 1777992244 | 21.11° C | 54% | 1023.9 hPa | 0 mm | 2.68 m/s, 197° | 830 W/m² | - |
| 1777991644 | 21.11° C | 54% | 1023.9 hPa | 0 mm | 1.34 m/s, 201° | 789 W/m² | - |
| 1777991043 | 20.56° C | 58% | 1023.9 hPa | 0 mm | 2.68 m/s, 193° | 775 W/m² | - |
* Rain latest hour (hover to see other rain measurements)
** Current wind speed in m/s (hover to see current wind gust speed)